Location: Kuppenheim
(48.8299°N, 8.2568°E)
Time: 14:26:09
(UTC+00:00)

Cosmos 1633 - Pass Details

Date: 20 June 2021
Orbit: 461 x 476 km, 82.5° (Epoch: 04 August)

Event Time Altitude Azimuth Distance (km) Brightness Sun altitude
Exits shadow 00:53:27 22° 153° (SSE) 1,074 3.9 -15.3°
Maximum altitude 00:55:21 42° 94° (E) 679 3.4 -15.2°
Drops below altitude 10° 00:58:43 10° 23° (NNE) 1,626 6.6 -15.0°
Sets 01:00:52 0° 16° (NNE) 2,510 8.1 -14.8°
